Location: Unspecified
(29.8274°N, 0.0000°E)
Time: 08:56:12
(UTC+00:00)

CE-SAT-IE - Visible Passes

Search period start: 04 April 2026 00:00
Search period end: 14 April 2026 00:00
Orbit: 665 x 668 km, 98.0° (Epoch: 29 March)

Date Brightness Start Highest point End Pass type
(mag) Time Alt. Az. Time Alt. Az. Time Alt. Az.
4 Apr ? 20:21:06 20° NNE 20:21:06 20° NNE 20:22:46 10° N visible
5 Apr ? 20:53:03 23° N 20:53:03 23° N 20:54:49 10° N visible
6 Apr ? 19:46:52 12° NE 19:46:52 12° NE 19:47:43 10° NE visible
6 Apr ? 21:25:00 17° NW 21:25:00 17° NW 21:26:14 10° NNW visible
7 Apr ? 20:18:49 22° NNE 20:18:49 22° NNE 20:20:46 10° N visible
8 Apr ? 20:50:47 27° N 20:50:47 27° N 20:52:51 10° N visible
9 Apr ? 19:44:36 12° NE 19:44:36 12° NE 19:45:37 10° NE visible
9 Apr ? 21:22:44 20° NW 21:22:44 20° NW 21:24:18 10° NNW visible
10 Apr ? 20:16:33 23° NNE 20:16:33 23° NNE 20:18:46 10° NNE visible
10 Apr ? 21:54:41 11° NW 21:54:41 11° NW 21:54:53 10° NW visible
11 Apr ? 20:48:30 30° N 20:48:30 30° N 20:50:52 10° N visible
12 Apr ? 19:42:19 12° NE 19:42:19 12° NE 19:43:28 10° NE visible
12 Apr ? 21:20:27 23° NW 21:20:27 23° NW 21:22:21 10° NNW visible
13 Apr ? 20:14:17 24° NE 20:14:17 24° NE 20:16:44 10° NNE visible
13 Apr ? 21:52:24 12° WNW 21:52:24 12° WNW 21:53:01 10° NW visible
